Location: Assche-ter-Heiden
(50.9174°N, 4.1574°E)
Time: 19:41:41
(UTC+00:00)

Meteor 2-10 - Pass Details

Date: 20 January 2020
Orbit: 737 x 869 km, 81.2° (Epoch: 16 February)

Event Time Altitude Azimuth Distance (km) Brightness Sun altitude
Rises 06:30:40 0° 213° (SSW) 3,391 7.2 -10.1°
Reaches altitude 10° 06:33:15 10° 220° (SW) 2,442 6.4 -9.7°
Maximum altitude 06:38:27 41° 290° (WNW) 1,164 4.5 -8.9°
Drops below altitude 10° 06:43:32 10° 1° (N) 2,375 6.3 -8.2°
Sets 06:46:01 0° 9° (N) 3,287 7.1 -7.8°
